R3D2 (44073 NORAD) Tracking and Keplerian Element Data

This shows tracking and keplerian element data for the satellite.

Feedback or suggestion? Click here.




ElementValue
Catalog44073
NameR3D2
Epoch Orbit368
Epoch Day111.83762862
Epoch Year2019
RAAN310.007
Inclination39.5239
Eccentricity0.0012577
Argument of Perigee144.1973
Mean Anonmoly216.086
Mean Motion15.45799852
Decay Rate-2.27E-06
L11 44073U 19016A 19111.83762862 -.00000227 00000-0 00000+0 0 9991
L22 44073 39.5239 310.0070 0012577 144.1973 216.0860 15.45799852 3688

Live tracking and technical data element details for R3D2 (NORAD 44073). R3D2 can be tracked NOW for your location showing map with azimuth and elevation plus other details from your city location.

Track the satellite on the map from your city or location and see movement details for azimuth, elevation, latitude, longitude, range, height, and movement on the map or in text.







IsCatalogInMostPopularTable: catalog: 44073, numindb: 13
Update: records affected: 1



GetName: 44073 R3D2

Hit Count: updated at: Tue, 23 Apr 2019 03:06:06 GMT